Regional Weather Roundup
Issued by NWS Charleston, SC

Current Version | Previous Version | Graphics & Text | Print | Product List | Glossary On
Versions: 1 2 3 4 5 6 7 8 9 10 11 12 13 14 15 16 17 18 19 20 21 22 23 24 25 26 27 28 29 30 31 32 33 34 35 36 37 38 39 40 41 42 43 44 45 46 47 48 49 50
000 ASUS42 KCHS 050427 RWRCHS REGIONAL WEATHER ROUNDUP NATIONAL WEATHER SERVICE CHARLESTON SC 1200 AM EDT SAT SEP 05 2015 NOTE: "FAIR" INDICATES FEW OR NO CLOUDS BELOW 12,000 FEET WITH NO SIGNIFICANT WEATHER AND/OR OBSTRUCTIONS TO VISIBILITY. NOT ALL STATIONS ARE QUALITY CONTROLLED BY THE NATIONAL WEATHER SERVICE. USE DATA WITH CAUTION...ESPECIALLY DEWPOINT OBSERVATIONS. SCZ027-030-031-034>040-042>050-050500- ...SOUTHEAST SOUTH CAROLINA... CITY SKY/WX TMP DP RH WIND PRES REMARKS N CHARLESTON PTCLDY 73 71 93 CALM 30.01S WATERFRONT PRK N/A 80 78 94 CALM 29.98S MOUNT PLEASANT FAIR 75 73 94 CALM 30.01S FOG JOHNS ISLAND FAIR 75 73 94 CALM 30.01S FOG PINOPOLIS N/A 81 75 83 CALM 29.94S MONCKS CORNER FAIR 73 70 88 CALM 30.01S FOG SUMMERVILLE NOT AVBL BEAUFORT MCAS CLEAR 75 72 90 N3 30.01S BEAUFORT ARPT FAIR 75 73 94 CALM 30.01R HILTON HEAD IS CLEAR 75 75 100 MISG 30.02S WALTERBORO CLEAR 73 70 88 CALM 30.03R ALLENDALE FAIR 73 72 94 CALM 30.02S ...SOUTHERN MIDLANDS AND PEE DEE... CITY SKY/WX TMP DP RH WIND PRES REMARKS GEORGETOWN NOT AVBL KINGSTREE NOT AVBL ORANGEBURG PTCLDY 74 71 91 CALM 30.04R BARNWELL FAIR 73 73 100 CALM 30.04S AIKEN RAIN 73 66 78 N12G18 30.10R MANNING CLOUDY 70 66 88 N17G30 30.04R THUNDER COLUMBIA CLOUDY 81 71 71 N3 30.04R SUMTER TSTM 70 66 88 E10 30.04R FOG FLORENCE MOCLDY 71 68 90 CALM 30.03S MYRTLE BEACH PTCLDY 77 64 65 N3 30.03S N MYRTLE BEACH MOCLDY 75 67 76 CALM 30.01S $$ GAZ063-065-086>088-099>101-113>116-118-119-134>141-150-050500- ...SOUTHEAST GEORGIA... CITY SKY/WX TMP DP RH WIND PRES REMARKS SAVANNAH ARPT MOCLDY 74 71 91 CALM 30.01S HUNTER AAF CLEAR 76 76 100 N3 29.99R FORT STEWART CLEAR 74 72 92 CALM 29.98F STATESBORO CLEAR 71 32 23 CALM 30.02S SYLVANIA NOT AVBL CLAXTON NOT AVBL ...CSRA...CENTRAL AND FAR SOUTHEAST GEORGIA... CITY SKY/WX TMP DP RH WIND PRES REMARKS THOMSON MOCLDY 79 74 83 N12G18 30.11R AUGUSTA-BUSH PTCLDY 73 73 100 CALM 30.03R FOG AUGUSTA-DANIEL PTCLDY 78 72 81 VRB6 30.05R SWAINSBORO FAIR 73 72 94 CALM 30.04R VIDALIA CLEAR 75 72 88 CALM 30.02S EASTMAN FAIR 74 74 100 CALM 30.03S FOG HAZLEHURST FAIR 75 73 92 CALM 30.00S ALMA PTCLDY 72 71 97 CALM 30.00F WAYCROSS MOCLDY 75 75 100 CALM 30.00S JESUP FAIR 75 73 94 CALM 30.01S BAXLEY FAIR 73 72 94 NE5 30.00S BRUNSWICK MOCLDY 73 73 100 CALM 30.01S SAINT SIMONS MOCLDY 78 72 81 CALM 30.00S $$ SCZ027-028-034-036>038-045-046-048>050-GAZ119-141-050500- ...LAKE AND SUPPLEMENTAL COASTAL OBSERVATIONS... STATION/POSITION TIME TEMP WIND PRES WAVE SWELL AIR SEA DIR/SP/G HT/PER HT/PER/DIR (UTC) (F) (DEG/KT/KT) (MB) (FT/S) (FT/S/D) UPR LAKE MARION NOT AVBL WINYAH BAY 0300 76 290/ 2 1015.0S LAKE MURRAY 0300 78 350/ 4/ 11 1016.9R ACE BASIN NERRS NOT AVBL FORT PULASKI 0400 78 84 330/ 3/ 4 1016.7R SAPELO ISLAND 0400 78 200/ 6 1016.0S $$ ANZ835-935-AMZ111-154-330-350-352-354-370-450-454-472-050500- ...C-MAN AND BUOY OBSERVATIONS... STATION/POSITION TIME TEMP WIND PRES WAVE SWELL AIR SEA DIR/SP/G HT/PER HT/PER/DIR (UTC) (F) (DEG/KT/KT) (MB) (FT/S) (FT/S/D) BUOY 41004 0350 82 85 30/ 4/ 6 1015.6F 1/11 2/11 BUOY 41008 0350 83 85 160/ 6/ 6 1015.9F 1 FOLLY BEACH CMAN 0400 82 80/ 4/ 5 1016.3S CAPERS NEARSHORE 0308 82 80/ 4/ 6 1016.2R FRIPP NEARSHORE 0300 83 190/ 4/ 4 1015.6R STATION/POSITION TIME TEMP WIND PRES WAVE SWELL AIR SEA DIR/SP/G HT/PER HT/PER/DIR (UTC) (F) (DEG/KT/KT) (MB) (FT/S) (FT/S/D) 5E ST. MARYS GA 0321 86 N/A 1/12 FRYING PAN BUOY 0350 83 82 350/ 6/ 10 1016.1F 1/11 BUOY 41025 0350 80 84 40/ 12/ 16 1015.5R 3/ 4 2/ 40/14 CAPE LOOKOUT NC 0400 81 50/ 16/ 17 1015.5S BUOY 41002 0350 82 84 30/ 10/ 12 1014.3F 1/10 2/110/10 BUOY 41010 0320 83 85 20/ 8/ 10 1015.1R ST AUGUSTINE FL 0400 78 85 300/ 4/ 5 1016.1F $$

USA.gov is the U.S. government's official web portal to all federal, state and local government web resources and services.